STARLINK-4362, 53043

Orbit data source: Space-Track

STARLINK-4362, 53043 is a payload satellite owned by SpaceX/Seattle (US) in SSO that was launched on Mon, 11 Jul 2022 UTC via an FALCON 9 launch vehicle from the Air Force Western Test Range (AFWTR). Payload-class satellites include a variety of spacecraft equipped with specific instruments for various scientific and technological missions. These include communications satellites like Starlink; space stations such as the ISS; scientific satellites like the Hubble; Earth observation satellites from companies like Planet Labs, Umbra, and HawkEye 360; GPS; miniature CubeSats for education and research; and military/defense satellites.

Loading next visibility...
Identifier
53043, 2022-077A
Orbit
SSO
Country
Flag of USUS
Related business
Manufacturer
SpaceX/Seattle
Mission
Operational Commercial Communications
Bus & Motor
STARLINK, Unknown motor
Mass
297 kg wet, ~275 kg dry
Launch date (UTC)
2022-07-11 (3 years ago)
Launch vehicle
FALCON 9
Launch site
Air Force Western Test Range (AFWTR)
Object type
Payload
Rocket body
Debris
Shape & HBR
Box + 1 Pan, 10.1 m
Radar Cross Section
13.562 m², Large (>1 m²)

Expand to show TLE details & history
Last TLE update: 19 hours ago

TLE from 19 hours ago
0 STARLINK-4362
1 53043U 22077A   25349.26091075 -.00000094  00000-0 -27871-5 0  9991
2 53043  97.6036 167.5547 0001918 101.3653 258.7787 15.01257462188252
Epoch: 2025-12-15T06:15Z
TLE epoch observation values (Epoch: 2025-12-15T06:15:42.688Z)
Latitude
-0.00004°
Longitude
-10.53518°
Altitude
566.336 km
Speed
7.578 km/s
True Right ascension
11h 10m 13s
True Declination
0° 00' 00"
Sunlit
Object was in daylight at epoch
Visualization orbit readout
Latitude
Unknown
Longitude
Unknown
Altitude
Unknown
Speed
Unknown
Apparent Right ascension
Unknown
Apparent Declination
Unknown
Sunlit
N/A
Visualization observer readout
Local Sidereal Time
00:19:42
Azimuth
Unknown
Elevation
Unknown
Doppler factor
Unknown
Orbital elements
Apogee altitude
561.348 km
Perigee altitude
558.686 km
Semi-major axis
6,938.154 km
Eccentricity
0.00019
Inclination
97.6036°
RAAN
167.5547°
Arg. of periapsis
101.3653°
True anomaly
258.75714°
Mean anomaly
258.7787°
Eccentric anomaly
258.76792°
Mean motion
3.75558 °/min
Orbital period
95.86 mins
BSTAR
-0.0000027871
Loading maneuver chart data...
Computing Atmospheric mass density...
Loading historical data...
Loading historical data...
Loading historical data...
Loading historical data...
Loading historical data...
Loading historical data...
Loading historical data...

Documentation

Showing up to 5 results
|